www.pogodaiklimat.ru
ПОГОДА в Дои Му Со Агромете

Архив погоды в Дои Му Со Агромете (Таиланд)

Время
(UTC), дата
18 18.02
21 18.02
00 19.02
03 19.02
06 19.02
09 19.02
12 19.02
15 19.02
18 19.02
21 19.02
00 20.02
03 20.02
06 20.02
09 20.02
12 20.02
15 20.02
18 20.02
21 20.02
00 21.02
03 21.02
06 21.02
09 21.02
12 21.02
15 21.02
18 21.02
21 21.02
00 22.02
03 22.02
06 22.02
09 22.02
12 22.02
15 22.02
18 22.02
21 22.02
00 23.02
03 23.02
06 23.02
09 23.02
12 23.02
15 23.02
18 23.02
21 23.02
00 24.02
03 24.02
06 24.02
09 24.02
12 24.02
15 24.02
18 24.02
21 24.02
00 25.02
03 25.02
06 25.02
09 25.02
12 25.02
Ветер
(напр.,м/с)
Видим. Явления Облачность Т
(С)
Тd
(С)
f
(%)
Тe
(С)
Тes
(С)
Комфортность P
(гПа)
Po
(гПа)
Тmin
(С)
Tmax
(С)
R
(мм)
R24
(мм)
S
(см)
штиль 0 7000 м дымка ясно +17.8 +13.0 73 +18 +18 1014.6 917.6
штиль 0 7000 м мгла ясно +17.7 +9.7 59 +18 +18 1012.9 916.1
штиль 0 7000 м дымка 5/0 [Ac lent Cs] +15.1 +12.7 86 +15 +15 1014.7 916.9 +14.9
ЮЗ 2 8000 м мгла 3/0 [Ac lent Cs] +25.2 +13.2 47 +27 +37 жарко 1013.8 919.2
ЮЗ 3 9000 м мгла 4/3 600 м [Cu med, cong Ac lent Cs] +29.4 +12.1 34 +30 +40 жарко 1010.4 917.3
З 3 7000 м мгла 6/0 [Ac lent Cs] +30.3 +12.3 33 +31 +34 жарко 1005.7 913.3
штиль 0 7000 м мгла 4/0 [Ac lent Cs] +24.0 +12.5 49 +26 +26 жарко 1010.5 915.8 +30.6
штиль 0 9000 м дымка ясно +20.1 +14.4 70 +22 +22 комфорт 1012.9 916.8
штиль 0 9000 м дымка ясно +18.6 +15.0 80 +19 +19 1013.8 917.2
штиль 0 9000 м дымка ясно +17.6 +15.4 87 +18 +18 1013.7 916.8
В 2 7000 м дымка 3/0 [Ac lent Cs] +16.4 +14.7 90 +17 +17 1014.9 917.4 +16.3
ЮЗ 3 9000 м мгла 3/0 [Ac lent Ci fib] +25.8 +12.5 44 +28 +36 жарко 1012.0 917.7
ЮЗ 3 10 км 3/1 600 м [Sc Ac lent] +29.0 +12.2 35 +30 +41 жарко 1009.5 916.4
ЮЗ 3 8000 м мгла 3/1 600 м [Sc Ac lent Ci fib] +28.5 +11.5 35 +29 +33 жарко 1007.8 914.7
З 2 7000 м мгла 3/0 [Ac lent Ci fib] +23.5 +16.3 64 +27 +27 душно 1009.7 914.9 +30.0
ЮЗ 3 6000 м дымка 3/0 [Ac lent Ci fib] +20.2 +16.9 81 +24 +24 комфорт 1012.2 916.2
Ю 2 6000 м дымка ясно +17.8 +15.6 87 +19 +19 1012.3 915.5
ЮЗ 4 6000 м дымка ясно +18.2 +15.5 84 +18 +18 1010.8 914.3
ЮЗ 2 4000 м дымка 3/0 [Ac lent Ci fib] +17.0 +15.8 93 +17 +17 1012.4 915.4 +16.7
Ю 4 7000 м мгла 4/0 [Ac lent Ci fib] +25.3 +14.8 52 +28 +33 жарко 1012.1 917.6
ЮЗ 4 9000 м мгла 3/0 [Ac lent Cs] +28.5 +14.4 42 +31 +39 душно 1009.2 916.0
З 3 7000 м мгла 3/0 [Ac lent Cs] +27.6 +13.8 43 +30 +33 жарко 1008.6 915.2
З 2 9000 м дымка ясно +23.8 +16.8 65 +27 +27 жарко 1010.8 916.1 +30.3
штиль 0 9000 м дымка 3/0 [Cs] +21.0 +16.9 77 +24 +24 комфорт 1013.0 917.2
штиль 0 9000 м дымка 3/0 [Ci fib] +14.6 +13.5 93 +14 +14 1014.1 916.2
штиль 0 9000 м дымка ясно +15.1 +13.7 91 +15 +15 1013.4 915.7
штиль 0 9000 м дымка ясно +13.1 +12.0 93 +13 +13 1014.2 915.8 +12.9
В 2 9000 м мгла 3/0 [Cs] +25.3 +14.4 51 +28 +39 жарко 1013.3 918.8
Ю 2 7000 м мгла 4/0 [Ac lent Cs] +27.6 +15.1 46 +30 +45 жарко 1010.4 916.8
штиль 0 9000 м мгла 3/0 [Ci fib] +26.7 +12.6 42 +28 +36 жарко 1008.9 915.2
штиль 0 8000 м мгла ясно +20.7 +12.3 59 +23 +23 комфорт 1012.3 916.4 +30.5
штиль 0 9000 м дымка ясно +16.5 +12.3 76 +16 +16 1015.3 917.8
штиль 0 10 км ясно +15.0 +12.4 84 +15 +15 1015.2 917.3
штиль 0 9000 м дымка ясно +15.9 +12.8 82 +16 +16 1013.9 916.4
штиль 0 9000 м дымка 3/0 [Ac lent Cs] +13.4 +12.3 93 +13 +13 1016.6 918.0 +13.3
ЮЗ 3 7000 м мгла ясно +24.5 +14.6 54 +27 +38 жарко 1014.8 919.8
ЮЗ 4 6000 м мгла ясно +29.5 +14.9 41 +32 +45 душно 1010.9 917.8
СЗ 3 7000 м мгла 3/3 600 м [Cu med, cong] +29.7 +12.6 35 +31 +34 жарко 1008.6 915.8
З 3 6000 м мгла 3/0 [Ac lent Ci fib] +24.0 +11.6 46 +26 +26 жарко 1012.2 917.4 +31.2
З 2 6000 м дымка ясно +17.8 +13.0 73 +19 +19 1015.6 918.6
штиль 0 6000 м дымка 3/1 600 м [Sc Ac lent Ci fib] +17.0 +13.8 81 +17 +17 1015.1 917.8
штиль 0 6000 м дымка 3/0 [Ac trans Ci fib] +15.9 +13.4 85 +16 +16 1014.3 916.8
штиль 0 7000 м дымка 3/0 [Ac lent Ci fib] +14.5 +12.7 89 +14 +14 1016.5 918.3 +14.3
ЮЗ 2 7000 м мгла 1/0 [Ac lent] +27.0 +8.9 32 +27 +39 жарко 1014.0 919.9
ЮЗ 2 7000 м мгла 3/0 [Ac lent] +31.4 +14.3 35 +33 +46 жарко 1010.5 918.0
штиль 0 9000 м мгла 3/0 [Cs] +31.2 +15.4 38 +34 +41 душно 1009.0 916.6
штиль 0 6000 м дымка 1/0 [Ac lent] +23.2 +18.3 74 +29 +29 душно 1012.4 917.3 +32.8
штиль 0 6000 м дымка ясно +19.0 +15.6 81 +20 +20 1014.5 917.9
штиль 0 6000 м дымка 3/0 [Ac lent Ci fib] +17.8 +15.2 85 +18 +18 1015.0 918.0
штиль 0 6000 м дымка 5/1 600 м [Sc Ac lent Cs] +17.7 +15.1 85 +18 +18 1014.1 917.2
штиль 0 7000 м дымка 5/1 600 м [Sc Ac trans Cs] +16.5 +14.2 86 +16 +17 1014.9 917.6 +16.3
ЮЗ 2 7000 м мгла 3/0 [Ac lent Ci fib] +27.2 +13.7 43 +29 +39 жарко 1012.8 918.8
Ю 2 9000 м мгла 6/4 600 м [Sc Ac und Cs] +30.8 +14.4 37 +33 +41 душно 1009.8 917.2
штиль 0 7000 м мгла 6/5 600 м [Sc Ac lent Cs] +29.0 +19.5 57 +35 +39 очень душно 1008.9 915.8
штиль 0 8000 м мгла 6/5 300 м [Cu Sc Ac lent Cs] +25.0 +16.9 61 +29 +29 душно 1011.0 916.6 +31.1
Местоположение метеостанции Дои Му Со Агромет (Таиланд): широта 16.75 долгота 98.93 высота над уровнем моря 368 м.
В архиве по умолчанию представлена погода в Дои Му Со Агромете за последнюю неделю. Архивные данные за месяц целиком и за предыдущие месяцы, начиная с января 2011 года, Вы можете получить, выбрав интересующий диапазон дат из раскрывающегося списка и нажав кнопку "Найти!".
*Определитесь, кто Вы:
Внимание! Время в таблицах - всемирное. Для получения местного времени необходимо прибавить поправку, которая равна 7 ч.
Некоторые строки с данными для отдельных станций могут быть выделены курсивом. Это означает, что фактические данные отсутствуют по различным причинам, а приведенные значения являются расчетными модельными данными для данного пункта наблюдений.
Смотрите также архив погоды в соседних городах и на ближайших метеорологических станциях:
Партнеры нашего сайта:      
Пояснения к столбцам:
  • Ветер - указаны скорость ветра в м/с - средняя за 10 мин, порывы в срок и между сроками (в фигурных скобках) и направление, откуда дует ветер: С - северный,
  • СВ - северо-восточный, В - восточный, ЮВ - юго-восточный, Ю - южный, ЮЗ - юго-западный, З - западный, СЗ - северо-западный.
  • Видимость - горизонтальная дальность видимости в метрах или километрах. При видимости от 1 до 10 км при отсутствии осадков обычно наблюдается дымка, при ухудшении видимости до 1 км и менее - туман. В сухую погоду видимость может ухудшаться дымом, пылью или мглою.
  • Явления - указаны атмосферные явления, наблюдавшиеся в срок или в последний час перед сроком; фигурными скобками обозначены явления, наблюдавшиеся между сроками (за 1-3 часа до срока); квадратными скобками обозначены град или гололедные отложения с указанием их диаметра в мм.
  • Облачность - указаны через наклонную черту общая и нижняя облачность в баллах и высота нижней границы облаков в метрах; квадратными скобками обозначены формы облаков: Ci - перистые, Cs - перисто-слоистые, Cc - перисто-кучевые, Ac - высококучевые, As - высокослоистые, Sc - слоисто-кучевые, Ns - слоисто-дождевые, Cu - кучевые, Cb - кучево-дождевые. Подробнее классификацию облаков см. в Атласе облаков (PDF).
  • T - Температура воздуха - температура, измеренная на высоте 2 м над землей.
  • Td - Температура точки росы - температура, при понижении до которой содержащийся в воздухе водяной пар достигнет насыщения.
  • f - Относительная влажность воздуха - влажноcть воздуха, измеренная на высоте 2 м над землей.
  • Te - Эффективная температура - температура, которую ощущает одетый по сезону человек в тени. Характеристика душности погоды. При расчете учитывается влияние влажности воздуха и скорости ветра на теплоощущения человека.
  • Tes - Эффективная температура на солнце - температура, которую ощущает человек, с поправкой на солнечный нагрев. Характеристика знойности погоды. Зависит от высоты солнца над горизонтом, облачности и скорости ветра. Ночью, в пасмурную погоду, а также при ветре 12 м/с и более поправка равна нулю.
  • P - Атмосферное давление - приведенное к уровню моря атмосферное давление.
  • Po - Атмосферное давление - измеренное на уровне метеостанции атмосферное давление.
  • Tmin - Минимальная температура - минимум температуры воздуха на высоте 2 м над землей.
  • Tmax - Максимальная температура - максимум температуры воздуха на высоте 2 м над землей.
  • R - Количество осадков - Количество выпавших осадков за период времени, мм. При наведении курсора мыши на число - период времени, за который выпало указанное количество осадков.
  • R24 - Количество осадков - Количество выпавших осадков за 24 часа, мм.
  • S - Снежный покров - Высота снежного покрова, см. При наведении курсора мыши на число - состояние снежного покрова и степень покрытия местности в баллах.